Regional Weather Roundup
Issued by NWS

Home | Current Version | Previous Version | Text Only | Print | Product List | Glossary On
Versions: 1 2 3 4 5 6 7 8 9 10 11 12 13 14 15 16 17 18 19 20 21 22 23 24 25 26 27 28 29 30 31 32 33 34 35 36 37 38 39 40 41 42 43 44 45 46 47 48 49 50
000
ASUS43 KLSX 210207
RWRMO

WEATHER SUMMARY FOR MISSOURI
NATIONAL WEATHER SERVICE SPRINGFIELD MO
800 PM CST FRI JAN 20 2017

NOTE: "FAIR" INDICATES FEW OR NO CLOUDS BELOW 12,000 FEET WITH NO
       SIGNIFICANT WEATHER AND/OR OBSTRUCTIONS TO VISIBILITY.
       CURRENT SKY AND/OR WEATHER CONDITIONS ARE NOT AVAILABLE FOR
       CHILLICOTHE AND FARMINGTON.

MOZ001>031-035>038-043-044-053-054-210300-
...NORTHERN AND WESTERN MISSOURI...

CITY           SKY/WX    TMP DP  RH WIND       PRES   REMARKS
KANSAS CTY INT CLOUDY    48  46  93 SE6       29.46F FOG
KANSAS C DTWN  CLOUDY    50  48  93 CALM      29.46S
LEE`S SUMMIT   CLEAR     50  47  89 SE5       29.48S
ST JOSEPH      CLOUDY    45  45 100 CALM      29.46F FOG
CHILLICOTHE      N/A     48  47  96 SE7       29.49F
KIRKSVILLE     FOG       47  47 100 SE7       29.52S VSB 1

$$
MOZ066>068-077>081-088>096-101>105-210300-
...SOUTHWEST MISSOURI...

CITY           SKY/WX    TMP DP  RH WIND       PRES   REMARKS
SPRINGFIELD    CLEAR     56  39  53 S13       29.53R
JOPLIN         CLEAR     54  38  54 S6        29.51S
BRANSON        PTCLDY    57  37  47 S10       29.56S

$$
MOZ032>034-039>042-045>050-055>058-069>072-210300-
...CENTRAL MISSOURI...

CITY           SKY/WX    TMP DP  RH WIND       PRES   REMARKS
COLUMBIA       CLEAR     47  46  97 E8        29.51R
JEFFERSON CITY CLEAR     48  45  89 SE7       29.51R
ROLLA          CLEAR     52  48  86 S10       29.52R
SEDALIA        CLEAR     46  44  93 E3        29.50S
WHITEMAN AFB   CLEAR     46  46 100 SE5       29.47S
WARRENSBURG    CLEAR     45  43  93 E5        29.47S
OSAGE BEACH    CLEAR     53  47  79 S7        29.52S

$$
MOZ051-052-059>065-210300-
...EAST CENTRAL MISSOURI...

CITY           SKY/WX    TMP DP  RH WIND       PRES   REMARKS
ST LOUIS INTL  CLEAR     51  48  89 SE8       29.58R
SPIRIT OF STL  CLEAR     45  45 100 E6        29.56S
ST CHARLES     CLEAR     47  47 100 E8        29.57R FOG

$$
MOZ072>076-082>087-097>100-106>115-210300-
...SOUTH CENTRAL AND SOUTHEAST MISSOURI...

CITY           SKY/WX    TMP DP  RH WIND       PRES   REMARKS
CAPE GIRARDEAU CLEAR     54  50  86 S7        29.64S
FARMINGTON     CLOUDY    56  52  86 S14G22    29.60S
POPLAR BLUFF   CLEAR     55  52  89 S7        29.63S
WEST PLAINS    CLEAR     57  48  72 S12       29.60R

$$


USA.gov is the U.S. government's official web portal to all federal, state and local government web resources and services.